Location: Gull Harbor
(47.1000°N, 122.9000°W)
Time: 04:54:02
(UTC-08:00)

ISS - Pass Details

Date: 30 October 2019
Orbit: 412 x 421 km, 51.6° (Epoch: 19 November)

Event Time Altitude Azimuth Distance (km) Brightness Sun altitude
Exits shadow 07:01:05 13° 279° (W) 1,340 -1.9 -9.1°
Maximum altitude 07:03:53 42° 349° (N) 618 -3.1 -8.6°
Drops below altitude 10° 07:07:08 10° 62° (ENE) 1,508 -0.1 -8.1°
Sets 07:09:18 0° 70° (ENE) 2,372 1.2 -7.7°
